EW8100 Weather Reports


time (UTC)temp
C
wind
direction
speed
KPH
gust
KPH
rain 1hr
cm
rain 24hr
cm
rain mn
cm
humidity
%
barometer
mb
20260906145516 24 179 14.5 22.5 0.00 0.00 0.00 84 1017.5
20260906144516 24 181 14.5 17.7 0.00 0.00 0.00 85 1017.4
20260906143517 23 180 14.5 17.7 0.00 0.00 0.00 85 1017.3
20260906142537 23 179 12.9 19.3 0.00 0.00 0.00 86 1017.3
20260906141516 23 178 14.5 17.7 0.00 0.00 0.00 86 1017.4
20260906140517 23 179 14.5 17.7 0.00 0.00 0.00 87 1017.1
20260906135516 23 178 12.9 16.1 0.00 0.00 0.00 87 1017.2
20260906134556 23 179 14.5 19.3 0.00 0.00 0.00 87 1017.3
20260906133557 23 177 14.5 20.9 0.00 0.00 0.00 87 1017.1
20260906132516 23 179 14.5 16.1 0.00 0.00 0.00 88 1017.0
20260906131537 23 179 14.5 16.1 0.00 0.00 0.00 87 1017.1
20260906130517 23 177 14.5 16.1 0.00 0.00 0.00 87 1017.2
20260906125516 23 178 14.5 17.7 0.00 0.00 0.00 88 1017.2
20260906124517 23 179 14.5 17.7 0.00 0.00 0.00 88 1017.0
20260906123516 23 180 12.9 14.5 0.00 0.00 0.00 87 1016.9
20260906122516 22 178 14.5 16.1 0.00 0.00 0.00 87 1016.8
20260906121516 23 179 14.5 17.7 0.00 0.00 0.00 87 1016.8
20260906120536 23 175 14.5 14.5 0.00 0.00 0.00 87 1016.6
20260906115517 23 178 14.5 16.1 0.00 0.00 0.00 86 1016.4
20260906114516 23 177 14.5 14.5 0.00 0.00 0.00 86 1016.3
20260906113518 23 178 14.5 16.1 0.00 0.00 0.00 86 1016.2
20260906112517 23 179 14.5 16.1 0.00 0.00 0.00 86 1016.2
20260906111516 23 177 14.5 16.1 0.00 0.00 0.00 85 1016.3
20260906110536 23 180 14.5 16.1 0.00 0.00 0.00 86 1016.2
20260906105516 23 181 14.5 16.1 0.00 0.00 0.00 85 1016.1
20260906104516 23 180 14.5 16.1 0.00 0.00 0.00 85 1016.0
20260906103517 23 180 14.5 16.1 0.00 0.00 0.00 85 1016.0
20260906102536 24 180 14.5 16.1 0.00 0.00 0.00 85 1015.8
20260906101516 24 179 12.9 14.5 0.00 0.00 0.00 85 1016.0
20260906100516 24 180 14.5 16.1 0.00 0.00 0.00 85 1015.9
20260906095557 25 179 14.5 16.1 0.00 0.00 0.00 85 1015.7
20260906094537 25 178 14.5 17.7 0.00 0.00 0.00 85 1015.6
20260906093516 25 178 14.5 17.7 0.00 0.00 0.00 85 1015.7
20260906092537 25 179 12.9 16.1 0.00 0.00 0.00 84 1015.5
20260906091516 25 178 14.5 19.3 0.00 0.00 0.00 84 1015.5
20260906090601 25 180 14.5 16.1 0.00 0.00 0.00 84 1015.5
20260906085516 25 179 14.5 17.7 0.00 0.00 0.00 84 1015.4
20260906084516 26 181 14.5 16.1 0.00 0.00 0.00 84 1015.4
20260906083517 26 180 14.5 16.1 0.00 0.00 0.00 84 1015.3
20260906082516 26 180 14.5 16.1 0.00 0.00 0.00 84 1015.2
20260906081517 26 182 14.5 17.7 0.00 0.00 0.00 83 1015.0
20260906080517 26 181 14.5 17.7 0.00 0.00 0.00 83 1015.1
20260906075516 26 180 14.5 17.7 0.00 0.00 0.00 82 1015.1
20260906074516 27 181 14.5 16.1 0.00 0.00 0.00 82 1015.1
20260906073516 27 181 12.9 16.1 0.00 0.00 0.00 82 1015.2
20260906072517 27 181 14.5 16.1 0.00 0.00 0.00 82 1015.3
20260906071536 27 179 14.5 19.3 0.00 0.00 0.00 82 1015.1
20260906070516 27 180 14.5 19.3 0.00 0.00 0.00 81 1015.0
20260906065536 27 181 14.5 16.1 0.00 0.00 0.00 81 1015.0
20260906064516 28 175 16.1 20.9 0.00 0.00 0.00 81 1015.0
20260906063516 28 180 14.5 17.7 0.00 0.00 0.00 80 1015.1
20260906062516 28 179 14.5 19.3 0.00 0.00 0.00 80 1015.0
20260906061516 28 176 16.1 22.5 0.00 0.00 0.00 79 1015.1
20260906060516 28 179 14.5 17.7 0.00 0.00 0.00 79 1015.1
20260906055537 28 180 14.5 16.1 0.00 0.00 0.00 78 1015.0
20260906054516 28 181 14.5 16.1 0.00 0.00 0.00 78 1014.9
20260906053516 28 180 16.1 19.3 0.00 0.00 0.00 78 1015.0
20260906052516 28 180 14.5 17.7 0.00 0.00 0.00 77 1014.9
20260906051536 28 181 14.5 16.1 0.00 0.00 0.00 77 1014.9
20260906050537 28 182 14.5 16.1 0.00 0.00 0.00 77 1015.1
20260906045557 28 181 14.5 16.1 0.00 0.00 0.00 77 1014.8
20260906044517 28 181 14.5 16.1 0.00 0.00 0.00 76 1014.7
20260906043516 28 181 16.1 17.7 0.00 0.00 0.00 76 1014.7
20260906042516 28 182 14.5 16.1 0.00 0.00 0.00 76 1014.5
20260906041516 28 182 14.5 16.1 0.00 0.00 0.00 76 1014.5
20260906040516 28 181 16.1 16.1 0.00 0.00 0.00 75 1014.4
20260906035516 29 181 14.5 17.7 0.00 0.00 0.00 75 1014.4
20260906034516 29 181 14.5 16.1 0.00 0.00 0.00 75 1014.3
20260906033516 29 181 14.5 17.7 0.00 0.00 0.00 74 1014.3
20260906032516 29 181 14.5 16.1 0.00 0.00 0.00 74 1014.3
20260906031516 29 180 14.5 16.1 0.00 0.00 0.00 73 1014.0
20260906030517 30 181 14.5 17.7 0.00 0.00 0.00 72 1014.0
20260906025516 30 181 14.5 16.1 0.00 0.00 0.00 71 1013.8
20260906024516 30 181 14.5 17.7 0.00 0.00 0.00 71 1013.8
20260906023517 30 182 16.1 17.7 0.00 0.00 0.00 69 1013.6
20260906022516 30 182 14.5 16.1 0.00 0.00 0.00 68 1013.7
20260906021517 31 182 14.5 16.1 0.00 0.00 0.00 67 1013.3
20260906020537 31 182 14.5 17.7 0.00 0.00 0.00 66 1013.3
20260906015516 31 183 14.5 16.1 0.00 0.00 0.00 66 1013.1
20260906014516 31 181 16.1 17.7 0.00 0.00 0.00 65 1013.0
20260906013517 31 182 16.1 17.7 0.00 0.00 0.00 64 1012.9
20260906012516 31 183 14.5 16.1 0.00 0.00 0.00 64 1012.7
20260906011516 31 183 14.5 16.1 0.00 0.00 0.00 63 1012.6
20260906010516 32 182 16.1 17.7 0.00 0.00 0.00 62 1012.6
20260906005536 32 182 14.5 16.1 0.00 0.00 0.00 62 1012.4
20260906004517 32 181 14.5 16.1 0.00 0.00 0.00 62 1012.4
20260906003516 32 180 14.5 16.1 0.00 0.00 0.00 61 1012.4
20260906002516 32 180 14.5 17.7 0.00 0.00 0.00 60 1012.5
20260906001516 33 179 14.5 17.7 0.00 0.00 0.00 58 1012.5
20260906000516 33 182 16.1 19.3 0.00 0.00 0.00 57 1012.6
20260905235516 33 182 16.1 17.7 0.00 0.00 0.00 55 1012.5
20260905234516 33 181 16.1 17.7 0.00 0.00 0.00 55 1012.4
20260905233516 34 184 16.1 19.3 0.00 0.00 0.00 53 1012.6
20260905232542 34 183 14.5 17.7 0.00 0.00 0.00 53 1012.5
20260905231516 34 184 16.1 19.3 0.00 0.00 0.00 53 1012.5
20260905230516 35 184 16.1 17.7 0.00 0.00 0.00 51 1012.6
20260905225516 35 182 16.1 17.7 0.00 0.00 0.00 50 1012.5
20260905224516 35 181 16.1 19.3 0.00 0.00 0.00 49 1012.4
20260905223517 35 177 14.5 17.7 0.00 0.00 0.00 48 1012.4
20260905222517 36 179 14.5 17.7 0.00 0.00 0.00 47 1012.4
20260905221516 36 181 16.1 19.3 0.00 0.00 0.00 46 1012.4
20260905220516 36 180 16.1 24.1 0.00 0.00 0.00 46 1012.4
20260905215536 36 179 16.1 20.9 0.00 0.00 0.00 46 1012.3
20260905214516 36 182 17.7 22.5 0.00 0.00 0.00 46 1012.4
20260905213517 36 188 17.7 25.7 0.00 0.00 0.00 47 1012.4
20260905212516 36 187 17.7 24.1 0.00 0.00 0.00 47 1012.3
20260905211536 36 178 16.1 22.5 0.00 0.00 0.00 46 1012.4
20260905210516 36 183 17.7 22.5 0.00 0.00 0.00 47 1012.7
20260905205516 36 184 17.7 25.7 0.00 0.00 0.00 49 1012.9
20260905204516 36 178 16.1 17.7 0.00 0.00 0.00 50 1012.9
20260905203516 36 180 16.1 20.9 0.00 0.00 0.00 50 1012.8
20260905202516 36 178 16.1 22.5 0.00 0.00 0.00 51 1012.8
20260905201516 36 171 14.5 19.3 0.00 0.00 0.00 50 1013.1
20260905200516 36 189 17.7 24.1 0.00 0.00 0.00 51 1013.1
20260905195516 37 179 16.1 29.0 0.00 0.00 0.00 47 1013.1
20260905194518 37 179 16.1 25.7 0.00 0.00 0.00 44 1012.9
20260905193537 37 181 16.1 20.9 0.00 0.00 0.00 44 1013.2
20260905192516 37 194 19.3 25.7 0.00 0.00 0.00 44 1013.5
20260905191516 37 178 16.1 20.9 0.00 0.00 0.00 44 1013.5
20260905190516 36 189 17.7 30.6 0.00 0.00 0.00 46 1013.5
20260905185517 36 179 17.7 24.1 0.00 0.00 0.00 46 1013.7
20260905184542 36 179 16.1 20.9 0.00 0.00 0.00 47 1013.8
20260905183517 36 173 16.1 17.7 0.00 0.00 0.00 50 1013.9
20260905182536 35 173 16.1 20.9 0.00 0.00 0.00 50 1014.0
20260905181517 35 181 17.7 22.5 0.00 0.00 0.00 52 1014.0
20260905180517 35 186 17.7 20.9 0.00 0.00 0.00 52 1014.2
20260905175517 35 179 16.1 27.4 0.00 0.00 0.00 54 1014.2
20260905174541 35 179 16.1 20.9 0.00 0.00 0.00 54 1014.4
20260905173516 34 184 16.1 20.9 0.00 0.00 0.00 55 1014.5
20260905172536 34 176 16.1 20.9 0.00 0.00 0.00 56 1014.5
20260905171516 34 178 16.1 19.3 0.00 0.00 0.00 56 1014.5
20260905170516 34 186 16.1 22.5 0.00 0.00 0.00 56 1014.8
20260905165516 33 187 17.7 24.1 0.00 0.00 0.00 58 1014.9
20260905164537 33 180 16.1 19.3 0.00 0.00 0.00 59 1014.9
20260905163536 33 180 17.7 22.5 0.00 0.00 0.00 57 1015.0
20260905162517 33 180 16.1 20.9 0.00 0.00 0.00 57 1015.1
20260905161536 33 185 16.1 22.5 0.00 0.00 0.00 58 1015.3
20260905160516 32 185 16.1 20.9 0.00 0.00 0.00 58 1015.2
20260905155536 32 180 16.1 20.9 0.00 0.00 0.00 59 1015.3
20260905154516 32 186 17.7 22.5 0.00 0.00 0.00 60 1015.1
20260905153516 31 183 16.1 19.3 0.00 0.00 0.00 62 1015.3
20260905152537 31 183 16.1 20.9 0.00 0.00 0.00 64 1015.2
20260905151516 31 186 16.1 19.3 0.00 0.00 0.00 65 1015.1
20260905150516 30 190 17.7 20.9 0.00 0.00 0.00 67 1015.2